SRMSAT

Last updated on Sun Dec 21 2025 00:02:36 GMT+0000 (Coordinated Universal Time)

1 37841U 11058D 25354.52649405 .00000388 00000+0 66766-4 0 9995 2 37841 19.9724 60.8238 0011946 39.0399 89.0233 14.11513957732541
UTC large
Height (km)
Speed (km/s)
/
Latitude / Longitude
Inclination (degrees)
Orbital Period (minutes)
Azimuth
Elevation
Range (km)
Doppler Factor

Next 0 passes for location: London (51.5072 / 0.1276)

Sorry there are no passes over London.